Home > Weather > Sawai Madhopur > Past weeks

Flag for India Weather for the Past 2 Weeks in Sawai Madhopur, Rajasthan, India

Now
59 °F

Haze.


Feels Like: 60 °F
Forecast: 53 / 78 °F
Wind: 3 mph from North

Location: Jaipur / Sanganer

Current Time: Feb 11, 2016 at 2:48:36 AM

Latest Report: Feb 11, 2016 at 2:00 AM


Visibility: 2 mi

Pressure: 29.86 "Hg

Humidity: 45%

Dew point: 37 °F

Location of Sawai MadhopurLocation

Historic Weather in Sawai Madhopur — Graph

°F

Sawai Madhopur Temperature Yesterday

Maximum temperature yesterday: 79 °F (at 3:00 PM)
Minimum temperature yesterday: 54 °F (at 6:00 AM)
Average temperature yesterday: 67 °F

High & Low Weather Summary for the Past Weeks

 TemperatureHumidityPressure
High82 °F (Jan 30, 4:00 PM)94% (Jan 30, 6:00 AM)30.18 "Hg (Jan 30, 6:00 AM)
Low48 °F (Feb 3, 6:00 AM)14% (Feb 4, 2:00 PM)29.80 "Hg (Feb 4, 9:00 PM)
Average66 °F45%30.03 "Hg
* Reported Jan 27 1:00 AM — Feb 11 1:00 AM, Sawai Madhopur, Weather by CustomWeather, © 2016

Note: Actual official high and low records may vary slightly from our data, if they occured in-between our weather recording intervals... More about our weather records

Advertising

Sawai Madhopur Weather History for the Previous 24 Hours

 ConditionsComfort  
Time TempWeatherWind HumidityBarometerVisibility
1:00 AM
Thu, Feb 11
61 °FHaze.5 mph42%29.86 "Hg1 mi
12:00 AM61 °FHaze.2 mph42%29.86 "Hg1 mi
11:00 PM
Wed, Feb 10
63 °FHaze.6 mph37%29.89 "Hg1 mi
10:00 PM64 °FHaze.3 mph34%29.89 "Hg1 mi
9:00 PM68 °FHaze.5 mph30%29.89 "Hg1 mi
8:00 PM70 °FHaze.6 mph31%29.86 "Hg1 mi
7:00 PM70 °FHaze.3 mph29%29.86 "Hg1 mi
6:00 PM75 °FHaze.3 mph24%29.86 "Hg2 mi
5:00 PM79 °FHaze.3 mph18%29.86 "Hg2 mi
4:00 PM79 °FHaze.1 mph17%29.86 "Hg2 mi
3:00 PM79 °FHaze.5 mph16%29.89 "Hg2 mi
2:00 PM77 °FHaze.7 mph26%29.92 "Hg2 mi
1:30 PM75 °FHaze.6 mph29%29.95 "Hg2 mi
1:00 PM77 °FHaze.3 mph32%29.98 "Hg2 mi
12:00 PM72 °FHaze.6 mph38%30.01 "Hg2 mi
11:30 AM70 °FHaze.6 mph40%30.01 "Hg2 mi
11:00 AM70 °FHaze.6 mph40%30.01 "Hg2 mi
10:00 AM68 °FHaze.7 mph43%30.01 "Hg1 mi
9:00 AM64 °FHaze.7 mph52%30.01 "Hg1 mi
8:00 AM55 °FHaze.2 mph67%29.98 "Hg1 mi
7:00 AM54 °FHaze.No wind72%29.95 "Hg1 mi
6:00 AM54 °FHaze.No wind72%29.92 "Hg1 mi
5:00 AM57 °FHaze.No wind63%29.92 "Hg1 mi
2:00 AM61 °FHaze.5 mph59%29.95 "Hg1 mi
Weather by CustomWeather, © 2016

See weather overviewHow to use our weather pages